timestamp,surface_pressure_avg,surface_temp_avg,battery_voltage,lat,long
2018-01-26 00:00:00+00:00,235.0998,0.7,12.57,47.84626,-54.09684
2018-01-26 00:10:00+00:00,248.9931,0.79,12.49,47.84626,-54.09684
2018-01-26 00:20:00+00:00,263.4631,0.7,12.57,47.84626,-54.09684
2018-01-26 00:30:00+00:00,246.5897,0.6,12.57,47.84626,-54.09684
2018-01-26 00:40:00+00:00,237.8331,0.58,12.57,47.84626,-54.09684
2018-01-26 00:50:00+00:00,251.0997,0.7,12.57,47.84626,-54.09684
2018-01-26 01:00:00+00:00,252.4131,0.68,12.57,47.84626,-54.09684
2018-01-26 01:10:00+00:00,244.8614,0.44,12.49,47.84626,-54.09684
2018-01-26 01:20:00+00:00,245.9981,0.4,12.57,47.84626,-54.09684
2018-01-26 01:30:00+00:00,251.4114,0.4,12.57,47.84626,-54.09684
2018-01-26 01:40:00+00:00,246.3098,0.4,12.57,47.84626,-54.09684
2018-01-26 01:50:00+00:00,242.3531,0.3,12.57,47.84626,-54.09684
2018-01-26 02:00:00+00:00,259.4581,0.83,12.49,47.84626,-54.09684
2018-01-26 02:10:00+00:00,269.9564,0.9,12.49,47.84626,-54.09684
2018-01-26 02:20:00+00:00,266.3481,0.93,12.57,47.84626,-54.09684
2018-01-26 02:30:00+00:00,269.5847,0.9,12.57,47.84626,-54.09684
2018-01-26 02:40:00+00:00,285.0114,0.9,12.57,47.84626,-54.09684
2018-01-26 02:50:00+00:00,294.558,0.95,12.57,47.84626,-54.09684
2018-01-26 03:00:00+00:00,298.428,0.96,12.49,47.84626,-54.09684
2018-01-26 03:10:00+00:00,304.3481,0.9,12.49,47.84626,-54.09684
2018-01-26 03:20:00+00:00,303.298,0.9,12.57,47.84626,-54.09684
2018-01-26 03:30:00+00:00,306.5563,0.9,12.57,47.84626,-54.09684
2018-01-26 03:40:00+00:00,317.878,0.9,12.57,47.84626,-54.09684
2018-01-26 03:50:00+00:00,322.943,0.9,12.57,47.84626,-54.09684
2018-01-26 04:00:00+00:00,320.1797,0.9,12.49,47.84626,-54.09684
2018-01-26 04:10:00+00:00,322.2629,0.94,12.49,47.84626,-54.09684
2018-01-26 04:20:00+00:00,328.7614,0.9,12.57,47.84626,-54.09684
2018-01-26 04:30:00+00:00,336.2447,0.88,12.57,47.84626,-54.09684
2018-01-26 04:40:00+00:00,343.8247,0.85,12.57,47.84626,-54.09684
2018-01-26 04:50:00+00:00,347.9747,0.99,12.57,47.84626,-54.09684
2018-01-26 05:00:00+00:00,341.9246,0.92,12.49,47.84626,-54.09684
2018-01-26 05:10:00+00:00,349.418,1.06,12.49,47.84626,-54.09684
2018-01-26 05:20:00+00:00,362.3013,1.1,12.57,47.84626,-54.09684
2018-01-26 05:30:00+00:00,363.7697,1.16,12.57,47.84626,-54.09684
2018-01-26 05:40:00+00:00,357.2313,1.1,12.57,47.84626,-54.09684
2018-01-26 05:50:00+00:00,363.7896,1.1,12.57,47.84626,-54.09684
2018-01-26 06:00:00+00:00,372.3729,1.1,12.49,47.84626,-54.09684
2018-01-26 06:10:00+00:00,369.593,1.1,12.41,47.84626,-54.09684
2018-01-26 06:20:00+00:00,366.1262,1.1,12.57,47.84626,-54.09684
2018-01-26 06:30:00+00:00,372.0496,1.1,12.49,47.84626,-54.09684
2018-01-26 06:40:00+00:00,378.6329,1.1,12.57,47.84626,-54.09684
2018-01-26 06:50:00+00:00,376.9479,1.1,12.57,47.84626,-54.09684
2018-01-26 07:00:00+00:00,379.0162,1.1,12.49,47.84626,-54.09684
2018-01-26 07:10:00+00:00,380.6013,1.1,12.41,47.84626,-54.09684
2018-01-26 07:20:00+00:00,367.553,1.1,12.49,47.84626,-54.09684
2018-01-26 07:30:00+00:00,361.3746,1.1,12.49,47.84626,-54.09684
2018-01-26 07:40:00+00:00,358.2079,1.08,12.57,47.84626,-54.09684
2018-01-26 07:50:00+00:00,355.0397,1.1,12.57,47.84626,-54.09684
2018-01-26 08:00:00+00:00,346.3113,1.1,12.49,47.84626,-54.09684
2018-01-26 08:10:00+00:00,348.1063,1.0,12.41,47.84626,-54.09684
2018-01-26 08:20:00+00:00,346.8346,1.06,12.49,47.84626,-54.09684
2018-01-26 08:30:00+00:00,338.3396,1.1,12.49,47.84626,-54.09684
2018-01-26 08:40:00+00:00,327.3612,1.1,12.57,47.84626,-54.09684
2018-01-26 08:50:00+00:00,323.2829,1.1,12.57,47.84626,-54.09684
2018-01-26 09:00:00+00:00,319.4197,1.08,12.49,47.84626,-54.09684
2018-01-26 09:10:00+00:00,304.3797,0.92,12.41,47.84626,-54.09684
2018-01-26 09:20:00+00:00,301.7214,0.9,12.49,47.84626,-54.09684
2018-01-26 09:30:00+00:00,303.693,0.94,12.49,47.84626,-54.09684
2018-01-26 09:40:00+00:00,294.7847,1.0,12.57,47.84626,-54.09684
2018-01-26 09:50:00+00:00,275.0481,0.8,12.57,47.84626,-54.09684
2018-01-26 10:00:00+00:00,276.6514,0.9,12.49,47.84626,-54.09684
2018-01-26 10:10:00+00:00,284.6281,0.85,12.41,47.84626,-54.09684
2018-01-26 10:20:00+00:00,277.5847,0.78,12.49,47.84626,-54.09684
2018-01-26 10:30:00+00:00,264.458,0.9,12.49,47.84626,-54.09684
2018-01-26 10:40:00+00:00,271.7064,0.99,12.57,47.84626,-54.09684
2018-01-26 10:50:00+00:00,272.0198,0.99,12.57,47.84626,-54.09684
2018-01-26 11:00:00+00:00,260.2914,0.9,12.49,47.84626,-54.09684
2018-01-26 11:10:00+00:00,256.213,0.9,12.41,47.84626,-54.09684
2018-01-26 11:20:00+00:00,259.5748,0.8,12.49,47.84626,-54.09684
2018-01-26 11:30:00+00:00,254.9698,0.7,12.65,47.84626,-54.09684
2018-01-26 11:40:00+00:00,253.2064,0.7,12.65,47.84626,-54.09684
2018-01-26 11:50:00+00:00,257.2797,0.7,12.65,47.84626,-54.09684
2018-01-26 12:00:00+00:00,257.1864,0.64,12.57,47.84626,-54.09684
2018-01-26 12:10:00+00:00,252.1564,0.7,12.57,47.84626,-54.09684
2018-01-26 12:20:00+00:00,256.2248,0.68,12.65,47.84626,-54.09684
2018-01-26 12:30:00+00:00,259.3748,0.5,12.73,47.84626,-54.09684
2018-01-26 12:40:00+00:00,255.5431,0.3,12.97,47.84626,-54.09684
2018-01-26 12:50:00+00:00,254.8647,0.23,13.76,47.84626,-54.09684
2018-01-26 13:00:00+00:00,263.3914,0.51,13.68,47.84626,-54.09684
2018-01-26 13:10:00+00:00,267.5281,0.4,13.53,47.84626,-54.09684
2018-01-26 13:20:00+00:00,259.1497,0.4,13.92,47.84626,-54.09684
2018-01-26 13:30:00+00:00,257.8597,0.4,14.96,47.84626,-54.09684
2018-01-26 13:40:00+00:00,267.6014,0.4,14.24,47.84626,-54.09684
2018-01-26 13:50:00+00:00,267.2681,0.3,13.21,47.84626,-54.09684
2018-01-26 14:00:00+00:00,257.2364,0.35,12.97,47.84626,-54.09684
2018-01-26 14:10:00+00:00,262.623,0.97,13.37,47.84626,-54.09684
2018-01-26 14:20:00+00:00,275.2064,1.07,13.21,47.84626,-54.09684
2018-01-26 14:30:00+00:00,274.5648,1.03,13.05,47.84626,-54.09684
2018-01-26 14:40:00+00:00,267.3598,1.03,12.97,47.84626,-54.09684
2018-01-26 14:50:00+00:00,273.6497,1.02,12.97,47.84626,-54.09684
2018-01-26 15:00:00+00:00,283.4781,1.04,13.05,47.84626,-54.09684
2018-01-26 15:10:00+00:00,283.6997,1.07,12.89,47.84626,-54.09684
2018-01-26 15:20:00+00:00,281.473,1.07,12.97,47.84626,-54.09684
2018-01-26 15:30:00+00:00,285.238,1.1,12.89,47.84626,-54.09684
2018-01-26 15:40:00+00:00,289.2447,1.09,12.89,47.84626,-54.09684
2018-01-26 15:50:00+00:00,289.8131,1.0,12.89,47.84626,-54.09684
2018-01-26 16:00:00+00:00,295.483,1.0,12.81,47.84626,-54.09684
2018-01-26 16:10:00+00:00,302.8063,1.0,12.81,47.84626,-54.09684
2018-01-26 16:20:00+00:00,305.7563,1.0,12.89,47.84626,-54.09684
2018-01-26 16:30:00+00:00,311.4813,0.98,12.89,47.84626,-54.09684
2018-01-26 16:40:00+00:00,320.758,0.99,12.89,47.84626,-54.09684
2018-01-26 16:50:00+00:00,320.9897,0.9,12.89,47.84626,-54.09684
2018-01-26 17:00:00+00:00,319.8229,0.9,12.81,47.84626,-54.09684
2018-01-26 17:10:00+00:00,323.6263,0.84,12.73,47.84626,-54.09684
2018-01-26 17:20:00+00:00,328.1913,0.8,12.81,47.84626,-54.09684
2018-01-26 17:30:00+00:00,328.0847,0.8,12.81,47.84626,-54.09684
2018-01-26 17:40:00+00:00,326.183,0.96,12.81,47.84626,-54.09684
2018-01-26 17:50:00+00:00,329.9028,1.09,12.81,47.84626,-54.09684
2018-01-26 18:00:00+00:00,335.878,1.1,12.73,47.84626,-54.09684
2018-01-26 18:10:00+00:00,337.9663,1.1,12.73,47.84626,-54.09684
2018-01-26 18:20:00+00:00,337.1313,1.06,12.81,47.84626,-54.09684
2018-01-26 18:30:00+00:00,338.0596,1.06,12.81,47.84626,-54.09684
2018-01-26 18:40:00+00:00,339.0513,1.09,12.81,47.84626,-54.09684
2018-01-26 18:50:00+00:00,333.7463,1.1,12.81,47.84626,-54.09684
2018-01-26 19:00:00+00:00,333.6597,1.1,12.73,47.84626,-54.09684
2018-01-26 19:10:00+00:00,341.483,1.1,12.65,47.84626,-54.09684
2018-01-26 19:20:00+00:00,334.843,1.0,12.73,47.84626,-54.09684
2018-01-26 19:30:00+00:00,325.593,0.9,12.73,47.84626,-54.09684
2018-01-26 19:40:00+00:00,331.6213,0.8,12.73,47.84626,-54.09684
2018-01-26 19:50:00+00:00,333.463,1.12,12.73,47.84626,-54.09684
2018-01-26 20:00:00+00:00,322.7647,1.1,12.73,47.84626,-54.09684
2018-01-26 20:10:00+00:00,314.3613,1.09,12.65,47.84626,-54.09684
2018-01-26 20:20:00+00:00,316.2446,1.1,12.73,47.84626,-54.09684
2018-01-26 20:30:00+00:00,307.183,1.08,12.73,47.84626,-54.09684
2018-01-26 20:40:00+00:00,298.183,1.0,12.73,47.84626,-54.09684
2018-01-26 20:50:00+00:00,300.573,1.07,12.73,47.84626,-54.09684
2018-01-26 21:00:00+00:00,296.5364,1.05,12.65,47.84626,-54.09684
2018-01-26 21:10:00+00:00,285.788,0.9,12.65,47.84626,-54.09684
2018-01-26 21:20:00+00:00,281.378,0.9,12.73,47.84626,-54.09684
2018-01-26 21:30:00+00:00,284.868,0.95,12.65,47.84626,-54.09684
2018-01-26 21:40:00+00:00,279.3964,0.9,12.73,47.84626,-54.09684
2018-01-26 21:50:00+00:00,267.3831,0.9,12.73,47.84626,-54.09684
2018-01-26 22:00:00+00:00,266.9897,0.9,12.65,47.84626,-54.09684
2018-01-26 22:10:00+00:00,268.5014,0.89,12.57,47.84626,-54.09684
2018-01-26 22:20:00+00:00,263.713,0.9,12.65,47.84626,-54.09684
2018-01-26 22:30:00+00:00,251.7164,0.9,12.65,47.84626,-54.09684
2018-01-26 22:40:00+00:00,250.0331,0.94,12.65,47.84626,-54.09684
2018-01-26 22:50:00+00:00,249.3164,1.0,12.65,47.84626,-54.09684
2018-01-26 23:00:00+00:00,245.0448,1.0,12.65,47.84626,-54.09684
2018-01-26 23:10:00+00:00,238.0197,0.9,12.57,47.84626,-54.09684
2018-01-26 23:20:00+00:00,237.9598,0.9,12.65,47.84626,-54.09684
2018-01-26 23:30:00+00:00,233.3797,0.9,12.65,47.84626,-54.09684
2018-01-26 23:40:00+00:00,227.2814,0.9,12.65,47.84626,-54.09684
2018-01-26 23:50:00+00:00,220.9014,0.9,12.65,47.84626,-54.09684
